Location: Proctor
(47.8934°N, 114.3048°W)
Time: 11:22:47
(UTC+00:00)

Transit 4A - Pass Details

Date: 02 July 2024
Orbit: 870 x 973 km, 66.8° (Epoch: 13 July)

Event Time Altitude Azimuth Distance (km) Brightness Sun altitude
Rises 10:02:06 0° 325° (NW) 3,485 11.2 -12.4°
Reaches altitude 10° 10:05:16 10° 342° (NNW) 2,556 10.8 -12.1°
Maximum altitude 10:09:38 21° 30° (NNE) 1,916 10.7 -11.7°
Drops below altitude 10° 10:14:04 10° 78° (ENE) 2,596 11.0 -11.3°
Sets 10:17:17 0° 94° (E) 3,556 11.4 -11.0°
